Lid_Strength_Index
14 13 13 15 15 14 15 14 17 15 15 14 14 14 14 13 13 13 14 14 14 14 13 13 12 10 9 8 8 6 4 4 4 4 3 3 4 4 5 6 6 6 8 8
16 14 14 17 17 16 16 16 14 14 16 14 13 13 14 14 14 15 14 14 14 14 14 14 14 13 11 9 9 8 7 8 7 6 5 4 4 5 6 6 7 8 9 10
17 15 15 19 17 17 16 16 15 18 16 14 15 15 15 15 15 15 15 15 15 15 14 14 15 14 14 12 10 9 9 9 10 10 10 10 10 10 11 11 12 11 12 12
19 17 22 16 14 14 16 16 15 15 14 14 13 13 14 14 15 15 15 15 16 16 15 15 15 15 14 13 12 11 12 11 12 12 12 13 12 12 12 13 12 13 13 14
22 21 16 16 14 15 17 17 15 15 14 13 12 12 14 14 14 15 15 15 16 16 16 17 17 17 15 15 15 15 16 15 15 14 13 13 13 13 14 14 14 14 15 15
24 24 24 15 13 13 14 17 13 14 14 14 13 17 15 14 15 15 15 16 17 16 17 18 18 17 17 17 18 18 18 17 16 15 14 14 13 14 15 15 15 16 15 15
18 21 19 14 14 13 18 16 13 14 14 15 15 15 14 14 15 15 16 17 17 17 18 19 19 18 18 18 19 19 19 18 17 16 16 15 14 16 16 16 16 16 16 16
21 25 23 14 14 16 14 14 14 14 14 14 15 14 15 15 16 16 17 18 18 19 19 20 20 19 19 19 20 20 19 18 17 16 16 16 16 16 16 16 16 16 16 16
18 17 13 13 14 13 13 13 14 14 13 13 14 14 14 14 15 16 17 18 19 20 20 20 21 20 20 20 20 20 18 17 16 17 16 16 15 15 15 16 15 16 16 15
19 17 15 14 14 14 13 13 13 13 13 13 13 13 14 13 14 15 17 19 20 20 20 20 21 20 21 20 20 18 17 16 15 16 16 14 14 15 15 15 15 15 15 15
18 17 16 14 14 13 13 13 13 13 13 13 13 14 14 14 14 16 18 20 22 24 23 22 22 21 21 20 20 19 16 15 15 15 15 14 14 14 14 14 13 14 14 14
19 16 13 13 13 14 13 13 14 14 14 14 14 14 16 17 19 20 21 22 23 24 23 23 22 22 21 21 21 21 18 17 16 15 15 14 14 14 12 12 12 11 11 12
16 18 17 17 18 17 14 15 16 17 17 16 18 18 19 19 21 22 24 24 24 25 19 18 22 22 22 22 22 21 20 19 17 16 15 14 14 14 14 13 11 11 11 11
17 17 17 19 15 19 21 20 21 22 22 21 22 23 23 23 24 24 23 23 26 27 20 18 19 23 23 24 23 21 20 20 19 18 16 15 15 14 14 14 14 14 11 11
18 18 17 20 22 23 26 26 23 23 25 24 27 26 27 24 24 24 27 28 28 28 26 21 24 24 25 24 23 22 21 20 20 20 19 18 18 17 16 15 15 15 13 12
21 24 25 22 22 25 27 27 26 26 28 28 28 27 28 28 29 31 31 31 25 25 29 29 27 25 25 24 23 21 21 21 21 20 19 17 16 16 14 14 14 14 15 15
21 20 24 23 26 26 26 28 28 29 29 30 28 31 31 31 31 30 30 33 32 30 31 32 27 25 24 25 26 24 24 23 22 22 19 18 17 16 15 15 15 16 16 15
25 26 28 26 26 28 28 31 33 32 32 31 33 32 32 31 28 29 31 32 31 30 31 30 26 27 26 25 26 26 25 24 21 20 19 17 17 17 17 18 18 19 20 18
30 24 22 28 33 33 33 32 31 32 30 31 33 31 30 31 31 31 33 31 31 28 28 30 23 27 27 24 22 25 23 22 22 21 21 20 18 18 18 18 19 20 20 21
24 33 35 34 35 27 24 23 31 32 30 29 31 24 24 32 34 33 33 29 31 30 33 32 31 29 28 26 24 25 24 23 23 22 21 21 20 19 20 20 20 21 22 22
30 34 33 23 21 22 26 34 34 32 30 34 33 31 30 35 34 33 29 27 29 33 33 31 31 29 28 26 27 27 26 25 24 24 23 23 22 21 20 21 21 22 22 22
34 33 24 20 20 22 34 36 36 34 34 33 33 32 30 33 33 32 33 29 31 30 31 31 30 27 28 26 29 28 27 27 27 26 25 23 23 22 23 23 23 23 23 23
31 26 21 22 22 30 36 36 36 35 33 33 32 32 31 31 32 27 25 30 31 30 30 28 25 23 24 29 30 29 29 27 28 29 29 28 27 28 27 27 27 26 26 25
29 23 21 27 33 33 30 33 36 36 35 35 35 34 32 30 30 33 32 30 29 27 27 25 23 22 26 30 31 30 31 32 31 32 30 29 30 29 29 29 28 28 28 27
24 24 30 32 31 30 33 35 35 35 34 33 33 33 34 33 29 30 31 30 25 29 29 26 23 25 29 30 30 30 32 33 33 33 32 32 31 30 31 31 31 30 30 31
23 24 26 28 29 29 30 31 28 27 25 27 31 34 33 32 31 30 30 29 30 29 31 30 30 30 29 29 29 29 30 30 30 31 31 32 31 31 30 31 31 32 34 35
28 27 27 27 27 27 26 26 27 27 30 30 30 33 32 32 31 30 29 30 30 31 31 30 29 29 29 29 29 29 29 29 29 31 32 31 32 32 31 33 34 34 34 34